Location: Bismarck
(46.7731°N, 100.8200°W)
Time: 12:10:33
(UTC-06:00)

ISS - All Passes

Search period start: 22 January 2017 00:00
Search period end: 01 February 2017 00:00
Orbit: 399 x 410 km, 51.6° (Epoch: 23 January)

Date Brightness Start Highest point End Pass type
(mag) Time Alt. Az. Time Alt. Az. Time Alt. Az.
22 Jan - 00:37:38 10° W 00:40:44 39° NNW 00:43:49 10° ENE night (unlit)
22 Jan - 02:14:37 10° WNW 02:17:41 36° N 02:20:43 10° ENE night (unlit)
22 Jan - 03:51:07 10° WNW 03:54:23 82° SSW 03:57:38 10° ESE night (unlit)
22 Jan - 05:28:36 10° W 05:30:25 14° SW 05:32:14 10° S night (unlit)
22 Jan - 22:08:58 10° SSW 22:11:59 36° SE 22:15:01 10° ENE night (unlit)
22 Jan - 23:45:13 10° W 23:48:24 50° NNW 23:51:36 10° ENE night (unlit)
23 Jan - 01:22:18 10° WNW 01:25:19 33° N 01:28:19 10° ENE night (unlit)
23 Jan - 02:58:54 10° WNW 03:02:08 65° NNE 03:05:23 10° ESE night (unlit)
23 Jan - 04:35:43 10° W 04:38:25 24° SW 04:41:05 10° SSE night (unlit)
23 Jan - 21:17:21 10° S 21:19:55 21° SE 21:22:28 10° E night (unlit)
23 Jan - 22:52:52 10° WSW 22:56:07 72° NNW 22:59:23 10° ENE night (unlit)
24 Jan - 00:29:55 10° WNW 00:32:56 33° N 00:35:56 10° ENE night (unlit)
24 Jan - 02:06:41 10° WNW 02:09:51 47° NNE 02:13:00 10° E night (unlit)
24 Jan - 03:43:14 10° WNW 03:46:20 40° SW 03:49:23 10° SE night (unlit)
24 Jan - 20:26:25 10° SSE 20:27:54 13° SE 20:29:22 10° ESE night (unlit)
24 Jan - 22:00:38 10° SW 22:03:53 73° SSE 22:07:08 10° ENE night (unlit)
24 Jan - 23:37:28 10° W 23:40:33 37° N 23:43:37 10° ENE night (unlit)
25 Jan - 01:14:25 10° WNW 01:17:30 38° N 01:20:34 10° E night (unlit)
25 Jan - 02:50:54 10° WNW 02:54:09 69° SSW 02:57:22 10° SE night (unlit)
25 Jan - 04:28:53 10° WSW 04:30:06 12° SW 04:31:18 10° SSW night (unlit)
25 Jan - 21:08:34 10° SW 21:11:41 43° SE 21:14:48 10° ENE night (unlit)
25 Jan - 22:45:01 10° W 22:48:10 45° NNW 22:51:21 10° ENE night (unlit)
26 Jan - 00:22:05 10° WNW 00:25:06 33° N 00:28:07 10° ENE night (unlit)
26 Jan - 01:58:38 10° WNW 02:01:54 75° NNE 02:05:08 10° ESE night (unlit)
26 Jan - 03:35:37 10° W 03:38:05 20° SW 03:40:31 10° S night (unlit)
26 Jan - 20:16:47 10° SSW 20:19:33 26° SE 20:22:19 10° E visible
26 Jan - 21:52:36 10° WSW 21:55:50 63° NNW 21:59:05 10° ENE night (unlit)
26 Jan - 23:29:40 10° WNW 23:32:41 33° N 23:35:41 10° ENE night (unlit)
27 Jan - 01:06:22 10° WNW 01:09:35 52° NNE 01:12:46 10° E night (unlit)
27 Jan - 02:42:59 10° WNW 02:45:58 33° SW 02:48:56 10° SSE night (unlit)
27 Jan - 19:25:29 10° S 19:27:28 15° SE 19:29:28 10° E visible
27 Jan - 21:00:16 10° WSW 21:03:32 86° SE 21:06:49 10° ENE visible
27 Jan - 22:37:12 10° WNW 22:40:15 35° N 22:43:18 10° ENE night (unlit)
28 Jan - 00:14:05 10° WNW 00:17:12 40° NNE 00:20:18 10° E night (unlit)
28 Jan - 01:50:34 10° WNW 01:53:47 57° SSW 01:56:58 10° SE night (unlit)
28 Jan - 20:08:05 10° SW 20:11:17 52° SSE 20:14:29 10° ENE visible
28 Jan - 21:44:42 10° W 21:47:50 42° NNW 21:50:58 10° ENE night (unlit)
28 Jan - 23:21:44 10° WNW 23:24:46 34° N 23:27:48 10° ENE night (unlit)
29 Jan - 00:58:14 10° WNW 01:01:31 87° NNE 01:04:46 10° ESE night (unlit)
29 Jan - 02:35:27 10° W 02:37:37 17° SW 02:39:46 10° S night (unlit)
29 Jan - 19:16:09 10° SSW 19:19:05 31° SE 19:22:01 10° ENE visible
29 Jan - 20:52:13 10° W 20:55:27 55° NNW 20:58:39 10° ENE visible
29 Jan - 22:29:19 10° WNW 22:32:19 33° N 22:35:19 10° ENE night (unlit)
30 Jan - 00:05:57 10° WNW 00:09:11 59° NNE 00:12:24 10° ESE night (unlit)
30 Jan - 01:42:39 10° W 01:45:30 28° SW 01:48:19 10° SSE night (unlit)
30 Jan - 18:24:35 10° S 18:26:56 18° SE 18:29:17 10° E visible
30 Jan - 19:59:48 10° WSW 20:03:05 81° NNW 20:06:21 10° ENE visible
30 Jan - 21:36:49 10° WNW 21:39:51 34° N 21:42:52 10° ENE visible
30 Jan - 23:13:37 10° WNW 23:16:47 43° NNE 23:19:54 10° E night (unlit)
31 Jan - 00:50:08 10° WNW 00:53:18 47° SSW 00:56:26 10° SE night (unlit)
31 Jan - 17:34:08 10° SE 17:34:51 11° SE 17:35:35 10° ESE daylight
31 Jan - 19:07:31 10° SW 19:10:46 63° SSE 19:14:00 10° ENE visible
31 Jan - 20:44:16 10° W 20:47:23 39° NNW 20:50:29 10° ENE visible
31 Jan - 22:21:15 10° WNW 22:24:20 36° N 22:27:22 10° ENE night (unlit)
